Regional Weather Roundup
Issued by NWS

Home | Current Version | Previous Version | Text Only | Print | Product List | Glossary Off
Versions: 1 2 3 4 5 6 7 8 9 10 11 12 13 14 15 16 17 18 19 20 21 22 23 24 25 26 27 28 29 30 31 32 33 34 35 36 37 38 39 40 41 42 43 44 45 46 47 48 49 50

000
ASUS45 KBOU 250407
RWRCO

WEATHER ROUNDUP FOR COLORADO
NATIONAL WEATHER SERVICE DENVER/BOULDER CO
1000 PM MDT FRI APR 24 2015

NOTE: "FAIR" INDICATES FEW OR NO CLOUDS BELOW 12000 FEET WITH NO
SIGNIFICANT WEATHER AND/OR OBSTRUCTIONS TO VISIBILITY.

COZ001>005-013-030-031-250500-
...NORTHWEST COLORADO...

CITY           SKY/WX    TMP DP  RH WIND       PRES   REMARKS
CRAIG          CLOUDY    45  32  60 CALM      29.77R
HAYDEN         MOCLDY    45  28  53 SE10      29.78S
MEEKER         CLOUDY    47  30  51 N7        29.79R
MOUNT WERNER   NOT AVBL
STEAMBOAT SPGS MOCLDY    42  33  68 SE3       29.80S
WALDEN         CLOUDY    36  32  87 CALM      29.84S
$$

COZ006>008-011-250500-
...WEST CENTRAL VALLEYS...

CITY           SKY/WX    TMP DP  RH WIND       PRES   REMARKS
GRAND JUNCTION CLOUDY    55  32  41 S15G26    29.75R
MONTROSE       PTCLDY    46  34  62 E7        29.85R
EAGLE          PTCLDY    39  30  70 E6        29.87R
RIFLE          PTCLDY    44  33  65 CALM      29.80R
DELTA          MOCLDY    52  33  47 MISG      29.83S
NUCLA          MOCLDY    48  32  53 E12       29.88R
$$

COZ017>023-064>068-250500-
...SOUTHWEST COLORADO...

CITY           SKY/WX    TMP DP  RH WIND       PRES   REMARKS
DURANGO        MOCLDY    39  32  76 N8        29.94R
CORTEZ         CLOUDY    52  28  39 SW10      29.88R
PAGOSA SPRINGS PTCLDY    34  29  83 CALM      29.97R
TELLURIDE      MOCLDY    34  30  86 S3        30.00R
WOLF CREEK PAS NOT AVBL
$$

COZ009-010-012-014-032>034-037-058>063-250500-
...CENTRAL COLORADO...

CITY           SKY/WX    TMP DP  RH WIND       PRES   REMARKS
ASPEN          PTCLDY    32  27  81 S7        29.87R WCI  26
BUENA VISTA    PTCLDY    42  23  47 W16G24    29.86R
COPPER MTN     PTCLDY    28  18  64 W16G24    29.97R WCI  17
BERTHOUD PASS  FAIR      21  12  68 NW29G36   29.94R WCI   3
COTTONWOOD PAS PTCLDY    37  21  52 N10G31    29.88F
GUNNISON       PTCLDY    37  28  70 SW3       29.94R
KREMMLING      MOCLDY    39  27  60 CALM      29.86R
LEADVILLE      PTCLDY    30  19  63 N8        29.92R WCI  22
MONARCH PASS   MOCLDY    25  19  80 W43       30.05S WCI   5
SALIDA         PTCLDY    44  23  43 W9        29.92R
SUNLIGHT       CLEAR     30  27  86 CALM      29.98R
WILKERSON PASS MOCLDY    28  18  64 W10G18    29.94R WCI  19
$$

COZ069>075-250500-
...SAN LUIS VALLEY/SANGRE DE CRISTO MOUNTAINS...

CITY           SKY/WX    TMP DP  RH WIND       PRES   REMARKS
ALAMOSA        PTCLDY    36  19  50 CALM      29.89R
LA VETA PASS   PTCLDY    32  21  64 S13G25    29.91R WCI  22
SAGUACHE       CLEAR     36  27  69 NW8       29.90R
$$

COZ035-036-038>040-250500-
...NORTHERN COLORADO FRONT RANGE...

CITY           SKY/WX    TMP DP  RH WIND       PRES   REMARKS
DENVER INTL AP MOCLDY    51  34  52 SW6       29.70R
DMNS CITY PARK   N/A     50  33  51 S3        29.71R
AURORA         MOCLDY    48  32  54 S6        29.73R
FRONT RANGE AP NOT AVBL
ERIE MUNI ARPT MOCLDY    49  32  50 CALM      29.69R
BOULDER MUN AP MOCLDY    52  32  46 S3        29.69R
CENTENNIAL     MOCLDY    44  31  60 S3        29.73R
BROOMFIELD     CLOUDY    50  28  43 SW3       29.71R
FORT COLLINS   CLOUDY    52  34  50 N5        29.71R
LONGMONT       CLOUDY    51  36  56 CALM      29.70R
$$

COZ041-046-047-076>085-087-088-250500-
...PIKES PEAK/PALMER DIVIDE AND SOUTHERN FOOTHILLS...

CITY           SKY/WX    TMP DP  RH WIND       PRES   REMARKS
COLO. SPRINGS  PTCLDY    43  32  65 N5        29.76R
A. F. ACADEMY  PTCLDY    42  28  57 VRB3      29.75R
ELLICOTT       PTCLDY     1  32 100 CALM      29.74R
FALCON         PTCLDY    38  31  76 NW6       29.78R
FORT CARSON    PTCLDY    46  35  65 S6        29.73R
LIMON          CLOUDY    44  39  82 W9        29.69R
MONUMENT HILL  MOCLDY    41  28  60 SW8       29.76R
TRINIDAD       PTCLDY    45  24  43 W8        29.75R
$$

COZ042>045-048>051-090-091-250500-
...NORTHEAST COLORADO...

CITY           SKY/WX    TMP DP  RH WIND       PRES   REMARKS
GREELEY ARPT   MOCLDY    48  34  57 N10       29.69R
AKRON          MOCLDY    48  37  65 W9        29.64R
BURLINGTON     CLOUDY    48  42  80 W8        29.62R
WRAY           CLOUDY    52  42  69 W7        29.60R
STERLING       MOCLDY    52  37  58 NW12      29.61R
HOLYOKE        CLOUDY    52  43  71 NW5       29.60R
FORT MORGAN    MOCLDY    48  35  60 W7        29.66R
$$

COZ086-089-092>099-250500-
...SOUTHEAST COLORADO...

CITY           SKY/WX    TMP DP  RH WIND       PRES   REMARKS
PUEBLO         PTCLDY    51  35  54 W8        29.71R
LA JUNTA       CLOUDY    56  36  47 N10       29.68R
LAMAR          MOCLDY    53  41  63 N6        29.64R
SPRINGFIELD      N/A     47  39  74 VRB3      29.66R
$$


USA.gov is the U.S. government's official web portal to all federal, state and local government web resources and services.